Location: Bavegemberg
(50.9500°N, 3.8833°E)
Time: 02:55:50
(UTC+00:00)

Daily predictions for brighter satellites

Satellite Brightness Start Highest point End
(mag) Time Altitude Azimuth Time Altitude Azimuth Time Altitude Azimuth
Cosmos 2228 Rocket 3.4 00:05:20 34° SSE 00:06:59 56° E 00:11:25 10° NNE
Meteor 1-12 Rocket 4.3 00:02:37 10° NNW 00:08:33 89° WSW 00:11:47 29° S
Cosmos 2082 Rocket 2.9 00:07:01 28° SSE 00:09:28 42° ESE 00:14:50 10° NE
Helios 1A Rocket 3.8 00:07:43 22° SE 00:09:45 41° ENE 00:13:24 10° N
Cosmos 1833 Rocket 2.9 00:08:10 24° SW 00:11:36 68° WNW 00:17:14 10° NNE
BREEZE-M DEB (TANK) 3.5 00:13:11 38° S 00:13:11 38° S 00:18:47 10° SE
Cosmos 724 4.3 00:12:02 30° SSW 00:15:04 72° SE 00:20:54 10° NE
Cosmos 1908 4.2 00:12:25 10° NNW 00:15:35 30° W 00:16:07 28° WSW
CZ-2D R/B 4.5 00:14:17 10° NE 00:17:00 14° E 00:19:40 10° ESE
Cosmos 2360 Rocket 4.4 00:15:14 10° NNW 00:19:54 25° NE 00:24:32 10° E
PSLV R/B 4.5 00:20:13 10° N 00:24:32 42° WNW 00:26:44 24° WSW
USA 267 3.2 00:18:11 10° ENE 00:24:45 81° SSE 00:30:21 15° SW
Cosmos 1140 Rocket 3.9 00:22:28 25° SW 00:25:27 58° WNW 00:30:38 10° NNE
Cosmos 1441 Rocket 3.9 00:23:16 10° NNW 00:26:32 34° W 00:27:04 32° WSW
Cosmos 1707 4.2 00:26:20 20° WSW 00:27:40 25° WNW 00:30:47 10° NNW
Cosmos 1455 3.7 00:26:12 10° NNE 00:29:12 26° ENE 00:31:18 15° ESE
Cosmos 1733 Rocket 3.0 00:25:52 10° NNW 00:30:12 78° W 00:31:55 36° S
Cosmos 841 Rocket 4.3 00:25:58 10° NNW 00:31:03 50° ENE 00:36:08 10° SE
Resurs 1-4 Rocket 4.2 00:28:24 10° NE 00:31:57 18° E 00:35:28 10° SE
GP-B 3.7 00:29:05 10° N 00:33:18 45° W 00:35:02 30° SW
Cosmos 1400 Rocket 2.7 00:32:16 40° SSW 00:33:37 82° WNW 00:37:38 10° N
H-2A R/B 3.0 00:32:37 10° N 00:36:46 40° WNW 00:38:59 23° WSW
Cosmos 2278 4.1 00:34:37 10° NNW 00:40:20 63° NE 00:45:59 10° SE
NOSS 3-4 (A) 4.1 00:35:20 10° NW 00:41:56 51° WSW 00:47:10 20° S
NOSS 3-4 (C) 4.1 00:35:26 10° NW 00:42:02 51° WSW 00:47:19 20° S
Cosmos 1346 Rocket 2.6 00:39:56 10° NNW 00:43:50 83° WSW 00:45:17 37° S
Cosmos 676 Rocket 4.4 00:42:47 27° S 00:45:29 57° ESE 00:50:43 10° NNE
Cosmos 468 Rocket 4.0 00:41:29 10° NNW 00:46:47 70° WSW 00:49:47 26° S
Cosmos 2251 Rocket 3.8 00:44:26 25° SW 00:47:26 61° WNW 00:52:41 10° NNE
Cosmos 407 Rocket 3.9 00:44:27 24° SW 00:47:35 56° WNW 00:52:46 10° NNE
Cosmos 1954 Rocket 4.1 00:48:42 29° S 00:51:29 75° ESE 00:56:48 10° NNE
Okean 2 3.9 00:49:49 28° SSE 00:51:36 50° E 00:55:28 10° NNE
Cosmos 2333 Rocket 3.9 00:47:42 10° NNW 00:52:55 34° NE 00:58:07 10° ESE
CZ-2C R/B 3.9 00:49:09 10° SE 00:53:52 37° ENE 00:58:37 10° N
Meteor 1-4 Rocket 3.4 00:53:08 25° SE 00:53:59 30° E 00:56:38 10° NNE
Cosmos 1190 Rocket 4.0 00:51:10 28° SSW 00:54:02 83° WNW 00:59:23 10° NNE
Cosmos 1763 Rocket 4.1 00:51:05 10° NW 00:56:04 42° WSW 00:58:19 27° SSW
Cosmos 2322 Rocket 3.2 00:52:31 10° NNW 00:57:58 46° NE 01:03:23 10° SE
Cosmos 1300 3.5 00:55:27 10° NNW 00:58:39 31° W 00:59:22 29° WSW
Cosmos 1703 Rocket 4.2 00:58:54 22° SSE 01:01:26 49° E 01:05:44 10° NNE
USA 234 3.5 00:56:30 12° SSE 01:02:21 44° SW 01:08:35 10° WNW
SL-14 R/B 4.0 01:01:39 28° SW 01:03:10 41° WNW 01:06:50 10° N
Cosmos 1953 2.2 00:59:21 10° N 01:03:17 81° ENE 01:05:20 27° SSE
SL-8 R/B 4.0 00:59:43 10° W 01:04:10 40° SSW 01:08:38 10° SE
Cosmos 1697 Rocket 4.3 01:00:34 10° WNW 01:04:13 18° W 01:05:44 16° WSW
Cosmos 1862 Rocket 3.9 01:04:13 29° SW 01:06:12 54° WNW 01:10:28 10° N
Aureole 3 3.3 01:09:14 35° WSW 01:09:56 42° WNW 01:12:49 10° N
Cosmos 1980 Rocket 3.1 01:06:45 10° NW 01:11:43 31° WSW 01:14:01 23° SW
Nadezhda 1 Rocket 4.1 01:06:36 10° N 01:13:03 88° ENE 01:18:17 16° S
Cosmos 540 Rocket 4.1 01:09:42 10° NW 01:14:30 39° WSW 01:16:52 25° SSW
Cosmos 1242 Rocket 4.2 01:13:25 14° SE 01:14:55 19° E 01:17:05 10° NE
Cosmos 1300 Rocket 4.3 01:12:09 10° N 01:16:23 48° ENE 01:20:25 11° SSE
ADEOS II 3.7 01:14:50 10° NE 01:19:18 28° E 01:23:44 10° SSE
MOZ.5/SAFIR/RUBIN 5/SL-8 3.8 01:18:21 22° S 01:21:26 71° WSW 01:26:09 10° NNW
COSMOS 2406 3.3 01:19:32 22° SW 01:23:22 74° WNW 01:29:10 10° NNE
Cosmos 1408 4.3 01:21:25 12° SE 01:23:24 20° E 01:25:42 10° NE
Cosmos 1356 Rocket 4.1 01:22:17 24° SW 01:24:16 42° WNW 01:28:13 10° N
Lacrosse 5 rocket 1.2 01:20:13 10° WNW 01:24:20 65° SW 01:28:14 10° SE
IDEFIX/ARIANE 42P 3.0 01:19:21 10° NNE 01:24:33 57° E 01:28:28 17° S
EXPRESS MD2 4.4 01:27:55 18° SSE 01:28:21 18° SE 01:31:02 10° E
Okean 1-7 3.2 01:30:04 25° SSW 01:32:25 58° WNW 01:36:42 10° N
Okean 3 4.4 01:34:53 20° WSW 01:37:00 33° WNW 01:40:46 10° N
ATLAS 2AS CENTAUR R/B 3.5 01:32:32 10° NW 01:39:22 54° NE 01:45:54 10° ESE
Cosmos 1315 Rocket 2.7 01:39:37 24° SSW 01:41:51 72° WNW 01:45:47 10° N
SL-16 R/B 2.2 01:36:51 10° NW 01:42:30 66° WSW 01:48:06 10° SSE
CZ-2C R/B 4.0 01:37:20 10° NNE 01:43:00 50° E 01:48:25 11° S
SJ 16-02 2.7 01:39:50 12° SSE 01:43:19 31° ESE 01:47:08 10° NE
Helios 1A Rocket 4.3 01:43:06 18° WSW 01:44:16 21° W 01:47:15 10° NW
Cosmos 1850 Rocket 4.1 01:46:14 18° SSW 01:50:11 77° ESE 01:55:28 10° NNE
Cosmos 2082 Rocket 3.1 01:48:50 13° WSW 01:53:35 42° NW 01:59:02 10° NNE
Cosmos 1709 Rocket 4.1 01:49:42 15° S 01:55:07 90° ENE 02:01:33 10° N
Cosmos 1741 Rocket 4.1 01:51:18 18° SSW 01:55:18 79° ESE 02:00:35 10° NNE
Cosmos 2219 Rocket 3.2 01:50:09 10° NNW 01:55:39 51° NE 02:01:10 10° SE
Cosmos 1782 Rocket 3.7 01:51:57 10° NNW 01:56:16 58° W 01:59:39 16° S
Cosmos 2181 Rocket 4.4 01:50:21 10° N 01:56:45 68° ENE 02:03:00 10° SSE
SL-16 R/B 2.9 01:51:01 10° SSE 01:57:13 70° ENE 02:03:28 10° NNW
CZ-2D R/B 2.3 01:52:23 10° NNE 01:57:55 78° ESE 02:02:42 14° S
Cosmos 1703 4.0 02:00:01 11° SSE 02:03:30 47° E 02:07:06 10° NNE
Cosmos 1455 3.3 02:00:47 10° NW 02:03:36 23° W 02:05:04 18° SW
Meteor 1-28 Rocket 3.4 02:00:39 10° SSE 02:04:12 67° ENE 02:07:45 10° N
Cosmos 2360 Rocket 2.2 01:58:53 10° NNW 02:04:36 85° WSW 02:10:17 10° SSE
CRYOSAT 2 4.4 02:01:07 10° N 02:06:02 85° E 02:10:48 11° S
Cosmos 968 Rocket 3.6 02:02:10 15° SSW 02:06:25 72° ESE 02:11:33 10° NNE
USA 267 3.8 02:01:17 10° ENE 02:07:40 59° NNW 02:14:03 10° W
Genesis I 3.9 02:05:37 16° S 02:08:03 38° ESE 02:11:24 10° NE
RESURS DK-1 2.5 02:04:42 10° NNW 02:08:48 76° ENE 02:12:51 10° SE
Meteor 1-24 Rocket 4.4 02:03:29 10° S 02:09:22 58° E 02:15:14 10° NNE
MSX 3.9 02:05:07 10° NNE 02:10:53 77° WNW 02:16:00 13° SSW
Resurs 1-4 Rocket 2.1 02:07:06 10° NNE 02:12:22 79° WNW 02:17:03 13° SSW
Cosmos 841 Rocket 4.5 02:08:11 10° NW 02:12:39 29° W 02:16:19 14° SSW
H-2A R/B 3.9 02:12:52 10° N 02:16:44 47° WNW 02:19:49 15° SW
FENGYUN 3A 3.8 02:16:24 10° NNE 02:21:49 79° ESE 02:27:11 10° SSW
COBE Rocket 4.5 02:18:46 10° N 02:23:24 45° WNW 02:27:39 12° SW
Meteor 1-4 Rocket 4.2 02:25:17 10° WSW 02:27:04 15° WNW 02:28:58 10° NNW
Geosat 4.3 02:27:22 10° SE 02:32:22 73° NE 02:37:24 10° NNW
SL-24 R/B 4.4 02:29:02 10° S 02:33:53 65° W 02:38:42 10° N
CZ-2C R/B 3.2 02:29:22 10° SSW 02:34:08 37° W 02:38:57 10° NNW
Cosmos 2242 Rocket 3.9 02:30:52 12° SSW 02:34:53 52° WNW 02:39:18 10° N
Cosmos 2333 Rocket 2.3 02:31:54 10° NW 02:37:29 56° WSW 02:43:05 10° S
Sich 1 Rocket 3.8 02:33:03 10° N 02:37:37 79° E 02:42:04 10° SSE
Cosmos 2098 Rocket 3.7 02:32:57 10° NNW 02:37:57 62° W 02:43:52 10° S
Timation 1 Rocket 4.4 02:32:20 11° SW 02:38:01 74° WNW 02:44:02 10° NNE
Cosmos 1825 3.6 02:35:12 10° SSE 02:38:16 32° E 02:41:22 10° NNE
Cosmos 2151 Rocket 3.6 02:35:37 10° N 02:40:08 89° E 02:44:35 10° S
Cosmos 1814 Rocket 4.4 02:36:18 10° NW 02:41:13 44° WSW 02:46:10 10° S
Cosmos 2292 4.5 02:38:51 10° NNW 02:41:54 58° W 02:45:26 10° S
Cosmos 2322 Rocket 2.7 02:36:46 10° NW 02:41:56 38° WSW 02:47:06 10° S
SL-27 R/B 1.9 02:40:26 12° SSW 02:42:59 71° WNW 02:45:48 10° NNE
Cosmos 1892 3.5 02:40:59 10° SSE 02:44:21 44° E 02:47:43 10° NNE
Cosmos 1242 Rocket 3.6 02:44:54 10° WSW 02:47:08 21° WNW 02:49:28 10° NNW
Meteor 2-5 Rocket 3.9 02:43:48 10° SSW 02:49:42 76° WNW 02:55:42 10° N
SL-4 R/B 3.7 02:48:02 10° SSW 02:51:33 24° SE 02:55:10 10° E
Okean 2 Rocket 3.0 02:48:37 10° NNW 02:53:01 75° W 02:57:24 10° S
Cosmos 1408 3.6 02:53:45 10° SW 02:56:11 22° WNW 02:58:39 10° NNW
Cosmos 2074 Rocket 4.1 02:50:43 10° S 02:56:57 88° W 03:03:13 10° N
Cosmos 1674 Rocket 3.7 02:53:58 10° S 02:58:26 87° E 03:02:53 10° N
Cosmos 1570 Rocket 4.0 02:53:51 10° NNW 02:59:09 69° WSW 03:04:26 10° SSE
ADEOS II 2.5 02:54:06 10° N 02:59:11 51° WNW 03:04:15 10° SW
Lacrosse 5 rocket 3.0 03:00:05 10° W 03:01:55 13° SW 03:03:43 10° SSW
Cosmos 2208 Rocket 4.0 02:56:59 10° NNW 03:02:20 83° WSW 03:07:34 10° SSE
IDEFIX/ARIANE 42P 3.9 02:59:24 10° N 03:03:46 27° WNW 03:08:08 10° WSW
ALOS 2.3 03:00:01 10° N 03:04:37 68° WNW 03:09:12 10° SSW
Cosmos 1833 4.3 02:59:03 10° SSW 03:04:44 80° WNW 03:10:24 10° NNE
